TimeCDT,TemperatureF,Dew PointF,Humidity,Sea Level PressureIn,VisibilityMPH,Wind Direction,Wind SpeedMPH,Gust SpeedMPH,PrecipitationIn,Events,Conditions,WindDirDegrees,DateUTC
12:15 AM,59.9,52.7,77,29.98,10.0,SSW,3.5,-,N/A,,Clear,200,2012-09-17 05:15:00
12:35 AM,60.3,52.7,76,29.98,10.0,SSW,4.6,-,N/A,,Clear,210,2012-09-17 05:35:00
12:55 AM,60.8,53.6,77,29.98,10.0,SW,4.6,-,N/A,,Clear,220,2012-09-17 05:55:00
1:15 AM,59.9,53.2,79,29.98,10.0,SSW,3.5,-,N/A,,Clear,200,2012-09-17 06:15:00
1:35 AM,59.7,53.4,80,29.98,10.0,Calm,Calm,-,N/A,,Clear,0,2012-09-17 06:35:00
1:55 AM,59.9,54.0,81,29.97,10.0,South,3.5,-,N/A,,Clear,180,2012-09-17 06:55:00
2:15 AM,57.6,52.9,84,29.97,10.0,SSW,4.6,-,N/A,,Clear,200,2012-09-17 07:15:00
2:35 AM,57.6,53.2,85,29.96,10.0,SSW,4.6,-,N/A,,Clear,200,2012-09-17 07:35:00
2:55 AM,55.9,52.7,89,29.95,10.0,SSW,5.8,-,N/A,,Clear,200,2012-09-17 07:55:00
3:15 AM,54.9,52.0,90,29.94,10.0,SW,4.6,-,N/A,,Clear,220,2012-09-17 08:15:00
3:35 AM,56.1,53.6,91,29.94,10.0,WSW,4.6,-,N/A,,Clear,240,2012-09-17 08:35:00
3:55 AM,56.7,54.0,91,29.93,7.0,SSW,5.8,-,N/A,,Clear,210,2012-09-17 08:55:00
4:15 AM,57.2,55.0,92,29.93,5.0,WSW,4.6,-,N/A,,Clear,240,2012-09-17 09:15:00
4:35 AM,55.4,53.6,94,29.93,5.0,WSW,3.5,-,N/A,,Clear,250,2012-09-17 09:35:00
4:55 AM,57.4,55.6,94,29.93,5.0,SSW,3.5,-,N/A,,Clear,210,2012-09-17 09:55:00
5:15 AM,57.2,55.4,94,29.92,1.2,SSW,4.6,-,N/A,,Mist,210,2012-09-17 10:15:00
5:35 AM,56.7,55.4,96,29.92,0.8,SSW,4.6,-,N/A,,Mist,210,2012-09-17 10:35:00
5:55 AM,55.4,54.0,95,29.93,0.8,South,4.6,-,N/A,,Mostly Cloudy,190,2012-09-17 10:55:00
6:15 AM,55.6,54.3,96,29.93,1.2,SSW,4.6,-,N/A,,Mostly Cloudy,200,2012-09-17 11:15:00
6:35 AM,54.7,53.2,95,29.93,2.0,SW,3.5,-,N/A,,Mostly Cloudy,230,2012-09-17 11:35:00
6:55 AM,57.2,57.2,100,29.93,0.2,SW,5.8,-,N/A,Fog,Fog,220,2012-09-17 11:55:00
7:15 AM,57.4,56.3,96,29.93,0.2,SW,5.8,-,N/A,Fog,Fog,230,2012-09-17 12:15:00
7:35 AM,56.8,55.6,96,29.93,0.2,SW,5.8,-,N/A,Fog,Fog,230,2012-09-17 12:35:00
7:55 AM,59.0,57.2,94,29.93,0.2,SSW,5.8,-,N/A,Fog,Fog,210,2012-09-17 12:55:00
8:15 AM,59.9,58.8,96,29.93,0.2,SW,4.6,-,N/A,Fog,Fog,220,2012-09-17 13:15:00
8:35 AM,61.2,59.9,96,29.93,0.2,WSW,3.5,-,N/A,Fog,Fog,240,2012-09-17 13:35:00
8:55 AM,61.7,60.8,97,29.93,2.0,WSW,4.6,-,N/A,,Mostly Cloudy,250,2012-09-17 13:55:00
9:15 AM,63.1,61.9,96,29.92,4.0,WSW,3.5,-,N/A,,Scattered Clouds,250,2012-09-17 14:15:00
9:35 AM,65.1,62.6,92,29.92,7.0,SW,5.8,-,N/A,,Scattered Clouds,220,2012-09-17 14:35:00
9:55 AM,66.4,61.7,85,29.92,10.0,SW,4.6,-,N/A,,Scattered Clouds,230,2012-09-17 14:55:00
10:15 AM,68.0,61.9,81,29.91,10.0,WSW,5.8,-,N/A,,Clear,250,2012-09-17 15:15:00
10:35 AM,69.6,62.2,77,29.91,10.0,SSW,5.8,-,N/A,,Scattered Clouds,210,2012-09-17 15:35:00
10:55 AM,70.7,62.1,74,29.90,10.0,SW,6.9,-,N/A,,Scattered Clouds,220,2012-09-17 15:55:00
11:15 AM,72.3,62.8,72,29.90,10.0,SW,6.9,-,N/A,,Scattered Clouds,230,2012-09-17 16:15:00
11:35 AM,72.7,61.9,69,29.89,10.0,SSW,6.9,-,N/A,,Scattered Clouds,200,2012-09-17 16:35:00
11:55 AM,73.8,61.0,64,29.88,10.0,SW,9.2,-,N/A,,Scattered Clouds,230,2012-09-17 16:55:00
12:15 PM,74.8,61.0,62,29.88,10.0,WSW,6.9,-,N/A,,Clear,250,2012-09-17 17:15:00
12:35 PM,74.3,60.1,61,29.86,10.0,WSW,6.9,-,N/A,,Scattered Clouds,240,2012-09-17 17:35:00
12:55 PM,75.2,58.6,56,29.85,10.0,South,8.1,-,N/A,,Scattered Clouds,180,2012-09-17 17:55:00
1:15 PM,75.4,58.5,56,29.84,10.0,SW,6.9,-,N/A,,Scattered Clouds,230,2012-09-17 18:15:00
1:35 PM,77.2,57.9,51,29.83,10.0,SSW,6.9,-,N/A,,Scattered Clouds,210,2012-09-17 18:35:00
1:55 PM,77.2,57.9,51,29.83,10.0,SSW,10.4,17.3,N/A,,Scattered Clouds,210,2012-09-17 18:55:00
2:15 PM,77.4,57.6,50,29.81,10.0,SW,8.1,-,N/A,,Scattered Clouds,230,2012-09-17 19:15:00
2:35 PM,76.3,57.2,52,29.80,10.0,SW,10.4,-,N/A,,Scattered Clouds,220,2012-09-17 19:35:00
2:55 PM,76.3,57.6,52,29.79,10.0,SW,9.2,-,N/A,,Scattered Clouds,220,2012-09-17 19:55:00
3:15 PM,75.7,58.1,54,29.78,10.0,SW,9.2,-,N/A,,Scattered Clouds,230,2012-09-17 20:15:00
3:35 PM,76.1,58.3,54,29.78,10.0,WSW,5.8,-,N/A,,Scattered Clouds,250,2012-09-17 20:35:00
3:55 PM,75.2,58.5,56,29.76,10.0,SW,9.2,-,N/A,,Mostly Cloudy,220,2012-09-17 20:55:00
4:15 PM,75.2,59.5,58,29.77,10.0,SW,10.4,-,N/A,,Overcast,230,2012-09-17 21:15:00
4:35 PM,71.6,59.5,66,29.77,10.0,SW,10.4,-,N/A,,Overcast,230,2012-09-17 21:35:00
4:55 PM,70.9,58.8,66,29.77,10.0,WSW,6.9,-,N/A,,Overcast,240,2012-09-17 21:55:00
5:15 PM,69.8,59.0,68,29.78,10.0,NW,16.1,21.9,N/A,,Mostly Cloudy,320,2012-09-17 22:15:00
5:35 PM,64.4,60.8,88,29.80,5.0,NW,16.1,26.5,N/A,Rain-Thunderstorm,Heavy Thunderstorms and Rain,310,2012-09-17 22:35:00
5:55 PM,63.0,60.1,90,29.80,7.0,NNW,5.8,-,0.24,Rain-Thunderstorm,Thunderstorms and Rain,330,2012-09-17 22:55:00
6:15 PM,63.5,61.0,91,29.79,10.0,NW,6.9,-,N/A,,Overcast,320,2012-09-17 23:15:00
6:35 PM,63.5,60.8,91,29.79,10.0,NNW,4.6,-,N/A,,Overcast,330,2012-09-17 23:35:00
6:55 PM,63.1,60.6,91,29.78,7.0,NNW,4.6,-,0.01,Thunderstorm,Drizzle,340,2012-09-17 23:55:00
7:15 PM,63.0,60.8,93,29.82,2.5,NW,11.5,-,0.18,Rain-Thunderstorm,Heavy Thunderstorms and Rain,310,2012-09-18 00:15:00
7:35 PM,60.3,56.7,88,29.82,7.0,NNW,23.0,29.9,0.23,Rain,Rain,340,2012-09-18 00:35:00
7:55 PM,59.9,56.5,88,29.79,10.0,NNE,15.0,19.6,0.25,Rain,Light Rain,20,2012-09-18 00:55:00
8:15 PM,59.9,56.7,89,29.84,10.0,WNW,9.2,-,N/A,Rain,Light Rain,300,2012-09-18 01:15:00
8:35 PM,59.9,57.2,91,29.83,10.0,NNW,4.6,-,N/A,,Mostly Cloudy,340,2012-09-18 01:35:00
8:55 PM,59.9,56.5,88,29.83,10.0,NNW,9.2,-,N/A,,Scattered Clouds,330,2012-09-18 01:55:00
9:15 PM,59.0,55.6,88,29.83,10.0,NW,9.2,-,N/A,,Scattered Clouds,320,2012-09-18 02:15:00
9:35 PM,58.1,54.7,88,29.84,10.0,NW,13.8,18.4,N/A,,Mostly Cloudy,320,2012-09-18 02:35:00
9:55 PM,57.4,53.8,88,29.84,10.0,NNW,16.1,20.7,N/A,,Overcast,330,2012-09-18 02:55:00
10:15 PM,57.4,53.8,88,29.85,10.0,NNW,12.7,-,N/A,,Overcast,330,2012-09-18 03:15:00
10:35 PM,57.0,52.9,86,29.85,10.0,NNW,15.0,19.6,N/A,,Overcast,340,2012-09-18 03:35:00
10:55 PM,56.3,51.8,85,29.85,10.0,NNW,11.5,-,N/A,,Overcast,340,2012-09-18 03:55:00
11:15 PM,55.8,51.4,85,29.86,10.0,NNW,10.4,-,N/A,,Overcast,330,2012-09-18 04:15:00
11:35 PM,55.4,51.3,86,29.86,10.0,NW,10.4,-,N/A,,Overcast,320,2012-09-18 04:35:00
11:55 PM,55.4,50.9,85,29.86,10.0,NW,9.2,-,N/A,,Overcast,320,2012-09-18 04:55:00